Tracking 31027 objects as of 19-Jul-2025
HD Live streaming from Space Station
objects crossing your sky now

YAOGAN-43 02D

Track YAOGAN-43 02D now!
10-day predictions
YAOGAN-43 02D is classified as:


NORAD ID: 60948
Int'l Code: 2024-156D
Perigee: 502.3 km
Apogee: 504.7 km
Inclination: 35.0 °
Period: 94.5 minutes
Semi major axis: 6874 km
RCS: Unknown
Launch date: September 3, 2024
Source: People's Republic of China (PRC)
Launch site: Xichang Space Center, China (XSC)
Your satellite tracking list
SL-12 R/B(AUX MOTOR)
Track 1 satellite(s)




NASA's NSSDC Master Catalog

Two Line Element Set (TLE):
1 60948U 24156D   25199.85748726  .00007785  00000-0  32284-3 0  9997
2 60948  34.9918 134.4322 0001752 147.9665 212.1156 15.23156381 32182
Source of the keplerian elements: AFSPC